Overview Statistics Trail Chart Weather Telemetry Raw packets
 

This is the latest recevied weather packets stored in our database for station/object W5CDN. If no packets are shown the sender has not sent any weather packets the latest 10 day(s).

<< 65 66 67 68 69 70 71 >>
Time Temp. Humidity Pressure Rain* Wind** Luminosity Snow
1787949836 36.67° C 38% 1013.9 hPa 0 mm - - -
1787949536 36.11° C 39% 1014.1 hPa 0 mm - - -
1787949236 37.22° C 39% 1014 hPa 0 mm - - -
1787948936 37.22° C 38% 1013.8 hPa 0 mm - - -
1787948636 37.78° C 38% 1014.2 hPa 0 mm - - -
1787948336 37.22° C 38% 1014.3 hPa 0 mm - - -
1787948036 37.22° C 39% 1014.6 hPa 0 mm - - -
1787947736 36.67° C 40% 1014.6 hPa 0 mm - - -
1787947436 35° C 41% 1014.7 hPa 0 mm - - -
1787947136 36.67° C 41% 1014.7 hPa 0 mm - - -
1787946836 36.67° C 40% 1014.6 hPa 0 mm - - -
1787946536 37.78° C 39% 1014.8 hPa 0 mm - - -
1787946236 38.33° C 39% 1014.7 hPa 0 mm - - -
1787945936 37.22° C 38% 1014.8 hPa 0 mm - - -
1787945636 37.78° C 39% 1014.9 hPa 0 mm - - -
1787945336 37.22° C 40% 1015 hPa 0 mm - - -
1787945036 37.22° C 39% 1015 hPa 0 mm - - -
1787944736 37.78° C 39% 1015 hPa 0 mm - - -
1787944436 36.67° C 41% 1015.2 hPa 0 mm - - -
1787944136 36.67° C 42% 1015.3 hPa 0 mm - - -
1787943836 35° C 43% 1015.5 hPa 0 mm - - -
1787943536 35.56° C 45% 1015.2 hPa 0 mm - - -
1787943236 36.11° C 45% 1015.5 hPa 0 mm - - -
1787942936 36.11° C 42% 1015.6 hPa 0 mm - - -
1787942636 36.67° C 45% 1015.6 hPa 0 mm - - -

* Rain latest hour (hover to see other rain measurements)
** Current wind speed in m/s (hover to see current wind gust speed)